Location: Observatoire
(46.1952°N, 5.3391°E)
Time: 23:43:39
(UTC+01:00)

Courier 1B Rocket - Pass Details

Date: 20 February 2026
Orbit: 920 x 1201 km, 28.2° (Epoch: 11 March)

Event Time Altitude Azimuth Distance (km) Brightness Sun altitude
Rises 22:25:54 0° 243° (WSW) 3,576 8.2 -42.8°
Enters shadow 22:26:52 - 238° (WSW) 3,333 8.0 -43.0°
Reaches altitude 10° 22:30:35 10° 212° (SSW) 2,675 - -43.5°
Maximum altitude 22:32:36 12° 193° (SSW) 2,584 - -43.7°
Drops below altitude 10° 22:34:41 10° 174° (S) 2,724 - -44.0°
Sets 22:39:35 0° 144° (SE) 3,745 - -44.7°
